Volver al catálogo

CZ-6A DEB

ActivoSSO
NORAD 54604·DEBRIS·🇨🇳 China

Lanzado Nov 11, 2022 desde Taiyuan Satellite Launch Center

Loading…

Próximos Pases (próximas 24 horas)

TLE

ActualizadoSource: Space-Track

Época: Sep 14, 2026, 10:41 UTC

1 54604U 22151NE  26257.44540767  .00000236  00000-0  15585-3 0  9997
2 54604  98.8587 257.9607 0050062  99.6937 260.9893 14.10183032196846

Sigue CZ-6A DEB en tiempo real con AllMySat

Download on the App Store